217  
ASUS43 KDTX 241910  
RWRMI  
MICHIGAN HOURLY REGIONAL WEATHER ROUNDUP  
NATIONAL WEATHER SERVICE DETROIT/PONTIAC MI  
ISSUED BY NATIONAL WEATHER SERVICE GRAND RAPIDS MI  
200 PM EST TUE JAN 24 2017  
 
NOTE: "FAIR" INDICATES FEW OR NO CLOUDS BELOW 12,000 FEET WITH NO  
SIGNIFICANT WEATHER AND/OR TO VISIBILITY
.  
 
MIZ047>049-052>055-059>063-066>070-074>076-081>083-242000-  
SOUTHEAST LOWER MICHIGAN  
 
CITY SKY/WX TMP DP RH WIND PRES REMARKS
 
ADRIAN CLOUDY 40 36 86 NW9 29.76F WCI 34  
ALMA CLOUDY 38 35 87 NW12 29.76F WCI 31  
ANN ARBOR CLOUDY 40 37 89 W14G20 29.73F WCI 32  
BAD AXE LGT RAIN 36 36 100 NW8 29.73F WCI 29  
DETROIT CITY CLOUDY 40 39 97 NW8 29.72F WCI 34  
DETROIT CLOUDY 41 38 89 NW10 29.73F  
FLINT CLOUDY 37 36 96 NW13 29.74F FOG WCI 29  
GROSSE ILE CLOUDY 41 38 88 NW9G16 29.72F  
HILLSDALE CLOUDY 36 34 93 NW10 29.75F WCI 28  
HOWELL CLOUDY 37 35 94 NW10G16 29.73F FOG WCI 29  
 
CITY SKY/WX TMP DP RH WIND PRES REMARKS
 
JACKSON CLOUDY 38 34 85 NW13 29.75F WCI 30  
LANSING CLOUDY 37 33 85 NW10 29.77F WCI 30  
MASON CLOUDY 37 36 94 NW10 29.75F WCI 30  
MONROE CLOUDY 41 39 94 NW10G16 29.73F  
MT. CLEMENS DRIZZLE 39 39 100 NW9 29.71F FOG WCI 33  
PONTIAC CLOUDY 37 35 92 NW10 29.71F FOG WCI 30  
PORT HOPE N/A 37 36 96 NW7 29.71F WCI 32  
PORT HURON CLOUDY 37 36 93 NW6 29.73S FOG WCI 33  
TRI CITIES CLOUDY 39 37 92 W13 29.75F WCI 31  
YPSILANTI CLOUDY 42 39 89 NW12 29.73F  

 
MIZ043>046-050>051-056>058-064>065-071>073-077>080-242000-  
SOUTHWEST LOWER MICHIGAN  
 
CITY SKY/WX TMP DP RH WIND PRES REMARKS
 
BATTLE CREEK CLOUDY 39 36 89 NW13 29.79S WCI 31  
BENTON HARBOR CLOUDY 38 34 85 W13 29.84F WCI 30  
BIG RAPIDS CLOUDY 37 35 94 NW6 29.76F WCI 32  
COLDWATER CLOUDY 39 37 92 NW10 29.79S WCI 32  
HOLLAND CLOUDY 39 36 89 W7 29.80F WCI 34  
GRAND RAPIDS CLOUDY 40 33 76 NW9 29.79F WCI 34  
KALAMAZOO CLOUDY 40 34 79 NW14G20 29.80F WCI 32  
MARSHALL CLOUDY 39 35 87 W8G16 29.77S WCI 33  
MOUNT PLEASANT CLOUDY 40 36 86 W5 29.75F  
MUSKEGON CLOUDY 40 36 86 NW9 29.80F WCI 34  
STURGIS CLOUDY 38 35 89 NW7 29.80S WCI 33  

 
MIZ016>042-242000-  
NORTHERN LOWER MICHIGAN  
 
CITY SKY/WX TMP DP RH WIND PRES REMARKS
 
ALPENA LGT RAIN 37 34 89 CALM 29.75F  
BEAVER ISLAND CLOUDY 34 34 100 N5 29.76F WCI 30  
BELLAIRE CLOUDY 35 35 100 NW3 29.77F  
CADILLAC LGT RAIN 36 35 95 W5 29.74F WCI 32  
CHARLEVOIX CLOUDY 35 35 100 NW6 29.79F WCI 30  
GAYLORD CLOUDY 35 32 88 NW6 29.72F FOG WCI 30  
HOUGHTON LAKE CLOUDY 35 34 96 NW7 29.74F WCI 29  
MANISTEE CLOUDY 38 36 92 VRB7 29.78F WCI 33  
OSCODA MIX PCPN 37 36 95 CALM 29.73F  
PELLSTON CLOUDY 35 33 92 N7 29.76F FOG WCI 29  
TRAVERSE CITY DRIZZLE 38 36 92 NW7 29.76F FOG WCI 33  
LUDINGTON CLOUDY 38 37 96 N7 29.79S WCI 33  

 
MIZ007>008-015-242000-  
EASTERN UPPER MICHIGAN  
 
CITY SKY/WX TMP DP RH WIND PRES REMARKS
 
KINROSS LGT SNOW 36 34 93 NW5 29.76S FOG WCI 32  
MACKINAC ISLAN MIX PCPN 33 33 100 NE3 29.76F  
NEWBERRY CLOUDY 33 32 96 N7 29.76F WCI 27  
S. S. MARIE LGT SNOW 36 33 89 W3 29.75F FOG  

 
MIZ004>006-011>014-085-242000-  
CENTRAL UPPER MICHIGAN  
 
CITY SKY/WX TMP DP RH WIND PRES REMARKS
 
MANISTIQUE CLOUDY 36 35 97 N7 29.76F WCI 30  
ESCANABA CLOUDY 38 36 92 NW3 29.79F  
SAWYER-GWINN CLOUDY 36 32 87 N9 29.77F WCI 29  

 
MIZ001>003-009>011-084-242000-  
WESTERN UPPER MICHIGAN  
 
CITY SKY/WX TMP DP RH WIND PRES REMARKS
 
IRON MOUNTAIN CLOUDY 37 31 78 N8 29.77F WCI 31  
HOUGHTON CLOUDY 36 32 85 NW14 29.79F WCI 27  
COPPER HARBOR N/A 36 34 92 N9 29.80F WCI 29  
IRONWOOD CLOUDY 34 29 82 N3 29.82F  

 
 
ABBREVIATIONS USED IN REMARKS  
TC - TEMPERATURE IN CELSIUS  
WCI - WIND CHILL INDEX  
HX - HEAT INDEX  
VSB - VISIBILITY  
 
 
 
CLICK HERE TO GO TO PREVIOUS BULLETINS.

The Nexlab MI Page Main Text Page

The Nexlab MI Page Main Text Page